EW3814 Weather Reports


time (UTC)temp
C
wind
direction
speed
KPH
gust
KPH
rain 1hr
cm
rain 24hr
cm
rain mn
cm
humidity
%
barometer
mb
20260504210757 25 75 0.0 0.0 0.00 0.00 0.00 35 1015.7
20260504210254 25 75 0.0 0.0 0.00 0.00 0.00 37 1015.7
20260504205754 25 115 0.0 0.0 0.00 0.00 0.00 32 1015.8
20260504205254 25 296 0.0 0.0 0.00 0.00 0.00 36 1015.8
20260504203255 25 31 0.0 0.0 0.00 0.00 0.00 33 1016.1
20260504202755 26 28 0.0 0.0 0.00 0.00 0.00 33 1016.2
20260504201755 26 171 0.0 0.0 0.00 0.00 0.00 34 1016.3
20260504201253 26 183 0.0 0.0 0.00 0.00 0.00 32 1016.4
20260504200755 25 167 0.0 0.0 0.00 0.00 0.00 32 1016.4
20260504200252 25 53 0.0 0.0 0.00 0.00 0.00 32 1016.5
20260504195252 26 275 0.0 0.0 0.00 0.00 0.00 33 1016.7
20260504194752 25 271 0.0 0.0 0.00 0.00 0.00 35 1016.8
20260504193751 25 338 0.0 0.0 0.00 0.00 0.00 33 1016.8
20260504193252 25 171 0.0 0.0 0.00 0.00 0.00 37 1017.0
20260504192752 26 252 0.0 0.0 0.00 0.00 0.00 35 1017.0
20260504191752 25 279 0.0 0.0 0.00 0.00 0.00 38 1017.2
20260504191252 25 220 0.0 0.0 0.00 0.00 0.00 36 1017.2
20260504190749 25 338 0.0 0.0 0.00 0.00 0.00 35 1017.3
20260504185750 25 196 0.0 0.0 0.00 0.00 0.00 40 1017.4
20260504185249 25 285 0.0 0.0 0.00 0.00 0.00 35 1017.4
20260504184854 25 358 0.0 0.0 0.00 0.00 0.00 36 1017.5
20260504184353 25 45 0.0 0.0 0.00 0.00 0.00 35 1017.5
20260504183851 25 46 0.0 0.0 0.00 0.00 0.00 36 1017.6
20260504183349 25 36 0.0 0.0 0.00 0.00 0.00 38 1017.6
20260504182345 24 7 0.0 0.0 0.00 0.00 0.00 37 1017.8
20260504181343 25 348 0.0 0.0 0.00 0.00 0.00 37 1017.8
20260504180840 25 348 0.0 0.0 0.00 0.00 0.00 37 1017.8
20260504180341 25 348 0.0 0.0 0.00 0.00 0.00 39 1017.8
20260504175839 24 353 0.0 0.0 0.00 0.00 0.00 41 1017.8
20260504175337 24 59 0.0 0.0 0.00 0.00 0.00 38 1017.8
20260504174834 24 64 0.0 0.0 0.00 0.00 0.00 43 1017.9
20260504173832 24 356 0.0 0.0 0.00 0.00 0.00 37 1017.9
20260504172830 24 13 0.0 0.0 0.00 0.00 0.00 38 1018.0
20260504172327 23 12 0.0 0.0 0.00 0.00 0.00 39 1018.1
20260504171826 23 2 0.0 0.0 0.00 0.00 0.00 36 1018.3
20260504171325 23 20 0.0 0.0 0.00 0.00 0.00 36 1018.4
20260504170822 23 29 0.0 0.0 0.00 0.00 0.00 38 1018.6
20260504170322 23 15 0.0 0.0 0.00 0.00 0.00 38 1018.6
20260504150747 18 23 0.0 0.0 0.00 0.00 0.00 46 1019.9
20260504150246 18 11 0.0 0.0 0.00 0.00 0.00 47 1019.9
20260504140739 16 252 0.0 0.0 0.00 0.00 0.00 64 1019.8
20260504140239 16 252 0.0 0.0 0.00 0.00 0.00 67 1019.8
20260504130229 8 251 0.0 0.0 0.00 0.00 0.00 94 1019.7
20260504120226 6 251 0.0 0.0 0.00 0.00 0.00 92 1019.4
20260504100221 6 251 0.0 0.0 0.00 0.00 0.00 89 1019.2
20260504081718 7 251 0.0 0.0 0.00 0.00 0.00 85 1019.1
20260504081218 7 251 0.0 0.0 0.00 0.00 0.00 85 1019.0
20260504080717 7 251 0.0 0.0 0.00 0.00 0.00 84 1018.9
20260504080218 7 251 0.0 0.0 0.00 0.00 0.00 84 1019.0
20260504070213 8 251 0.0 0.0 0.00 0.00 0.00 82 1019.1
20260504060213 9 251 0.0 0.0 0.00 0.00 0.00 78 1019.1
20260504050711 9 251 0.0 0.0 0.00 0.00 0.00 75 1019.3
20260504050210 9 251 0.0 0.0 0.00 0.00 0.00 75 1019.2
20260504045710 9 251 0.0 0.0 0.00 0.00 0.00 75 1019.2
20260504044709 9 251 0.0 0.0 0.00 0.00 0.00 74 1019.0
20260504044209 9 251 0.0 0.0 0.00 0.00 0.00 74 1019.0
20260504043710 10 251 0.0 0.0 0.00 0.00 0.00 74 1019.2
20260504042708 10 251 0.0 0.0 0.00 0.00 0.00 73 1019.1
20260504042208 10 251 0.0 0.0 0.00 0.00 0.00 73 1019.1
20260504041705 10 251 0.0 0.0 0.00 0.00 0.00 73 1019.1
20260504041205 10 251 0.0 0.0 0.00 0.00 0.00 73 1019.2
20260504040704 10 251 0.0 0.0 0.00 0.00 0.00 73 1019.3
20260504040203 10 251 0.0 0.0 0.00 0.00 0.00 72 1019.3
20260504035704 10 251 0.0 0.0 0.00 0.00 0.00 72 1019.4
20260504035203 10 251 0.0 0.0 0.00 0.00 0.00 72 1019.4
20260504034705 10 251 0.0 0.0 0.00 0.00 0.00 71 1019.4
20260504034204 10 251 0.0 0.0 0.00 0.00 0.00 71 1019.4
20260504033704 10 251 0.0 0.0 0.00 0.00 0.00 71 1019.4
20260504032704 10 251 0.0 0.0 0.00 0.00 0.00 71 1019.4
20260504032204 10 251 0.0 0.0 0.00 0.00 0.00 71 1019.4
20260504031701 10 251 0.0 0.0 0.00 0.00 0.00 70 1019.5
20260504031201 10 251 0.0 0.0 0.00 0.00 0.00 69 1019.5
20260504030704 11 251 0.0 0.0 0.00 0.00 0.00 69 1019.5
20260504030201 11 251 0.0 0.0 0.00 0.00 0.00 68 1019.5
20260504025701 11 251 0.0 0.0 0.00 0.00 0.00 67 1019.4
20260504025201 11 251 0.0 0.0 0.00 0.00 0.00 65 1019.4
20260504024202 11 251 0.0 0.0 0.00 0.00 0.00 64 1019.4
20260504023701 11 251 0.0 0.0 0.00 0.00 0.00 65 1019.4
20260504023200 11 251 0.0 0.0 0.00 0.00 0.00 64 1019.3
20260504022700 11 251 0.0 0.0 0.00 0.00 0.00 65 1019.3
20260504022158 11 251 0.0 0.0 0.00 0.00 0.00 65 1019.2
20260504021701 11 251 0.0 0.0 0.00 0.00 0.00 63 1019.1
20260504021158 11 251 0.0 0.0 0.00 0.00 0.00 63 1019.0
20260504020659 12 251 0.0 0.0 0.00 0.00 0.00 62 1019.0
20260504015159 12 251 0.0 0.0 0.00 0.00 0.00 61 1018.7
20260504014804 12 251 0.0 0.0 0.00 0.00 0.00 60 1018.6
20260504014303 12 251 0.0 0.0 0.00 0.00 0.00 60 1018.6
20260504013657 12 251 0.0 0.0 0.00 0.00 0.00 59 1018.6
20260504013301 12 251 0.0 0.0 0.00 0.00 0.00 59 1018.6
20260504012759 13 251 0.0 0.0 0.00 0.00 0.00 58 1018.5
20260504011756 13 251 0.0 0.0 0.00 0.00 0.00 57 1018.4
20260504011254 13 251 0.0 0.0 0.00 0.00 0.00 55 1018.4
20260504010752 14 251 0.0 0.0 0.00 0.00 0.00 54 1018.3
20260504010253 14 251 0.0 0.0 0.00 0.00 0.00 54 1018.3
20260504005749 14 251 0.0 0.0 0.00 0.00 0.00 54 1018.3
20260504005248 14 251 0.0 0.0 0.00 0.00 0.00 52 1018.2
20260504004745 15 251 0.0 0.0 0.00 0.00 0.00 52 1018.1
20260504003743 15 251 0.0 0.0 0.00 0.00 0.00 53 1018.2
20260504003242 15 251 0.0 0.0 0.00 0.00 0.00 51 1018.2
20260504002739 15 251 0.0 0.0 0.00 0.00 0.00 51 1018.1
20260504002239 16 251 0.0 0.0 0.00 0.00 0.00 51 1018.1
20260504001736 16 251 0.0 0.0 0.00 0.00 0.00 51 1018.0
20260504001235 16 251 0.0 0.0 0.00 0.00 0.00 50 1018.0
20260504000732 16 251 0.0 0.0 0.00 0.00 0.00 51 1017.9
20260504000234 16 25 0.0 0.0 0.00 0.00 0.00 50 1017.8
20260503235730 16 25 0.0 0.0 0.00 0.00 0.00 49 1017.8
20260503235230 17 25 0.0 0.0 0.00 0.00 0.00 48 1017.9
20260503234727 17 25 0.0 0.0 0.00 0.00 0.00 48 1017.9
20260503234225 17 25 0.0 0.0 0.00 0.00 0.00 48 1017.9
20260503233725 17 25 0.0 0.0 0.00 0.00 0.00 48 1017.9
20260503233223 17 25 0.0 0.0 0.00 0.00 0.00 48 1017.8
20260503232723 17 25 0.0 0.0 0.00 0.00 0.00 51 1017.8
20260503231719 18 25 0.0 0.0 0.00 0.00 0.00 49 1017.9
20260503231216 18 25 0.0 0.0 0.00 0.00 0.00 49 1017.9
20260503230716 18 25 0.0 0.0 0.00 0.00 0.00 45 1017.8
20260503230215 18 25 0.0 0.0 0.00 0.00 0.00 44 1017.8
20260503225711 18 25 0.0 0.0 0.00 0.00 0.00 47 1017.9
20260503225209 18 25 0.0 0.0 0.00 0.00 0.00 43 1017.9
20260503224708 18 25 0.0 0.0 0.00 0.00 0.00 41 1017.9
20260503224206 18 25 0.0 0.0 0.00 0.00 0.00 42 1018.0
20260503223704 18 25 0.0 0.0 0.00 0.00 0.00 39 1018.1
20260503222702 18 29 0.0 0.0 0.00 0.00 0.00 36 1018.2
20260503222202 18 9 0.0 0.0 0.00 0.00 0.00 35 1018.2
20260503221701 18 19 0.0 0.0 0.00 0.00 0.00 42 1018.1
20260503221158 18 17 0.0 0.0 0.00 0.00 0.00 36 1018.2
20260503220655 18 16 0.0 0.0 0.00 0.00 0.00 35 1018.2
20260503215654 18 53 0.0 0.0 0.00 0.00 0.00 37 1018.4
20260503215152 18 54 0.0 0.0 0.00 0.00 0.00 37 1018.4
20260503214147 18 11 0.0 0.0 0.00 0.00 0.00 35 1018.5
20260503213146 18 9 0.0 0.0 0.00 0.00 0.00 35 1018.6
20260503212645 19 96 0.0 0.0 0.00 0.00 0.00 35 1018.7
20260503212143 19 11 0.0 0.0 0.00 0.00 0.00 34 1018.7
20260503211643 18 359 0.0 0.0 0.00 0.00 0.00 34 1018.7